Location: Amsterdam
(30.7274°N, 84.4357°W)
Time: 16:08:06
(UTC+00:00)

Injun/Solrad 3 - Pass Details

Date: 21 February 2026
Orbit: 871 x 985 km, 66.8° (Epoch: 11 March)

Event Time Altitude Azimuth Distance (km) Brightness Sun altitude
Rises 14:53:40 0° 186° (S) 3,444 11.3 30.8°
Reaches altitude 10° 14:56:15 10° 179° (S) 2,507 10.8 31.2°
Maximum altitude 15:01:40 43° 109° (ESE) 1,210 10.3 32.1°
Drops below altitude 10° 15:07:09 10° 40° (NE) 2,541 10.3 33.1°
Sets 15:09:46 0° 34° (NNE) 3,495 10.9 33.5°
